| time (UTC) | temp F | wind direction | speed MPH | gust MPH | rain 1hr in | rain 24hr in | rain mn in | humidity % | barometer mb |
| 20260901063021 | 62 | 250 | 1.0 | 5.0 | 0.00 | 0.00 | 0.00 | 92 | 1003.1 |
| 20260901060111 | 59 | 238 | 0.0 | 3.0 | 0.00 | 0.00 | 0.00 | 98 | 1003.1 |
| 20260901053101 | 57 | 193 | 0.0 | 2.0 | 0.00 | 0.00 | 0.00 | 99 | 1003.0 |
| 20260901050051 | 56 | 90 | 0.0 | 1.0 | 0.00 | 0.00 | 0.00 | 97 | 1003.0 |
| 20260901043042 | 55 | 90 | 0.0 | 1.0 | 0.00 | 0.00 | 0.00 | 96 | 1002.9 |
| 20260901040051 | 55 | 142 | 0.0 | 2.0 | 0.00 | 0.00 | 0.00 | 96 | 1002.9 |
| 20260901033041 | 56 | 180 | 0.0 | 2.0 | 0.00 | 0.00 | 0.00 | 96 | 1002.9 |
| 20260901030113 | 57 | 180 | 0.0 | 1.0 | 0.00 | 0.00 | 0.00 | 96 | 1002.8 |
| 20260901023101 | 57 | 180 | 0.0 | 2.0 | 0.00 | 0.00 | 0.00 | 96 | 1002.7 |
| 20260901020051 | 57 | 180 | 0.0 | 1.0 | 0.00 | 0.00 | 0.00 | 96 | 1002.7 |
| 20260901013042 | 57 | 180 | 0.0 | 1.0 | 0.00 | 0.00 | 0.00 | 95 | 1002.7 |
| 20260901010032 | 57 | 180 | 0.0 | 2.0 | 0.00 | 0.00 | 0.00 | 94 | 1002.8 |
| 20260901003021 | 57 | 180 | 0.0 | 1.0 | 0.00 | 0.00 | 0.00 | 94 | 1002.9 |
| 20260901000113 | 57 | 180 | 0.0 | 1.0 | 0.00 | 0.00 | 0.00 | 93 | 1002.8 |
| 20260831233101 | 57 | 180 | 0.0 | 1.0 | 0.00 | 0.00 | 0.00 | 93 | 1002.8 |
| 20260831230051 | 57 | 180 | 0.0 | 1.0 | 0.00 | 0.00 | 0.00 | 92 | 1003.0 |
| 20260831223041 | 57 | 155 | 0.0 | 1.0 | 0.00 | 0.01 | 0.00 | 92 | 1003.0 |
| 20260831220031 | 56 | 135 | 0.0 | 2.0 | 0.00 | 0.01 | 0.00 | 91 | 1003.0 |
| 20260831213021 | 57 | 135 | 0.0 | 2.0 | 0.00 | 0.01 | 0.01 | 89 | 1002.9 |
| 20260831210113 | 57 | 135 | 0.0 | 2.0 | 0.00 | 0.01 | 0.01 | 87 | 1002.9 |
| 20260831203102 | 59 | 101 | 1.0 | 2.0 | 0.00 | 0.01 | 0.01 | 85 | 1002.7 |
| 20260831200053 | 60 | 90 | 0.0 | 2.0 | 0.00 | 0.01 | 0.01 | 84 | 1002.6 |
| 20260831193122 | 61 | 98 | 0.0 | 2.0 | 0.00 | 0.01 | 0.01 | 82 | 1002.5 |
| 20260831190031 | 62 | 135 | 0.0 | 2.0 | 0.00 | 0.01 | 0.01 | 80 | 1002.5 |
| 20260831183103 | 63 | 135 | 1.0 | 2.0 | 0.00 | 0.01 | 0.01 | 75 | 1002.6 |
| 20260831180112 | 65 | 45 | 0.0 | 1.0 | 0.00 | 0.01 | 0.01 | 71 | 1002.5 |
| 20260831173102 | 66 | 164 | 0.0 | 3.0 | 0.00 | 0.02 | 0.01 | 68 | 1002.6 |
| 20260831170051 | 68 | 161 | 0.0 | 2.0 | 0.00 | 0.20 | 0.01 | 63 | 1002.6 |
| 20260831163041 | 69 | 202 | 0.0 | 3.0 | 0.00 | 0.20 | 0.01 | 61 | 1002.5 |
| 20260831160031 | 68 | 207 | 0.0 | 3.0 | 0.00 | 0.22 | 0.01 | 63 | 1002.5 |
| 20260831153023 | 67 | 214 | 1.0 | 3.0 | 0.00 | 0.22 | 0.01 | 64 | 1002.7 |
| 20260831150113 | 67 | 191 | 1.0 | 3.0 | 0.00 | 0.22 | 0.01 | 63 | 1002.7 |
| 20260831143101 | 68 | 190 | 3.0 | 7.0 | 0.00 | 0.22 | 0.01 | 61 | 1002.8 |
| 20260831140052 | 69 | 213 | 3.0 | 6.0 | 0.00 | 0.22 | 0.01 | 61 | 1002.7 |
| 20260831133042 | 69 | 223 | 1.0 | 6.0 | 0.00 | 0.22 | 0.01 | 62 | 1002.5 |
| 20260831130031 | 69 | 187 | 2.0 | 6.0 | 0.00 | 0.22 | 0.01 | 62 | 1002.6 |
| 20260831123023 | 70 | 203 | 2.0 | 6.0 | 0.00 | 0.22 | 0.01 | 60 | 1002.6 |
| 20260831120114 | 70 | 250 | 2.0 | 7.0 | 0.00 | 0.22 | 0.01 | 60 | 1002.7 |
| 20260831113101 | 68 | 241 | 3.0 | 8.0 | 0.00 | 0.22 | 0.01 | 61 | 1002.9 |
| 20260831110051 | 68 | 239 | 2.0 | 6.0 | 0.00 | 0.22 | 0.01 | 61 | 1002.9 |
| 20260831103042 | 68 | 277 | 3.0 | 9.0 | 0.00 | 0.22 | 0.01 | 62 | 1002.6 |
| 20260831100031 | 67 | 264 | 4.0 | 10.0 | 0.00 | 0.23 | 0.01 | 64 | 1002.4 |
| 20260831093041 | 65 | 239 | 3.0 | 14.0 | 0.00 | 0.35 | 0.01 | 68 | 1002.5 |
| 20260831090112 | 64 | 259 | 3.0 | 9.0 | 0.00 | 0.36 | 0.01 | 71 | 1002.7 |
| 20260831083104 | 63 | 234 | 3.0 | 10.0 | 0.00 | 0.36 | 0.01 | 76 | 1002.6 |
| 20260831080053 | 63 | 234 | 2.0 | 7.0 | 0.00 | 0.36 | 0.01 | 79 | 1002.5 |
| 20260831073045 | 61 | 242 | 1.0 | 5.0 | 0.00 | 0.36 | 0.01 | 82 | 1002.3 |
| 20260831070035 | 60 | 234 | 1.0 | 5.0 | 0.00 | 0.36 | 0.01 | 84 | 1002.2 |